Theta_e
299 299 300 300 301 301 302 302 302 302 303 303 305 305 306 306 306 316 322 319 321 318 314 318 318 321 321 324 326 327 327 328 329 332 339 338 339 343 341 343 341 343 346 341 338
300 300 301 301 301 301 301 302 302 302 303 303 304 305 305 307 314 319 321 319 317 314 314 319 317 321 322 323 325 326 327 328 329 332 335 336 335 342 341 342 345 347 345 338 337
300 301 301 302 302 302 302 302 302 303 303 303 304 305 305 307 324 327 321 319 318 315 315 319 319 320 320 321 322 325 326 328 330 331 332 334 334 343 343 341 345 347 345 338 336
301 301 302 302 302 303 303 303 303 303 304 304 305 306 307 317 330 325 318 315 318 314 317 319 320 320 320 320 321 323 325 327 328 329 332 331 333 333 340 344 341 341 341 338 337
301 301 302 303 303 304 303 304 306 310 311 312 311 310 312 327 325 321 319 318 319 316 317 319 319 320 320 321 322 322 324 325 327 328 329 330 331 333 333 341 337 343 342 338 337
301 301 302 303 304 304 304 309 311 313 313 310 311 310 317 325 320 325 325 322 320 319 321 320 320 321 321 321 322 323 323 324 326 328 328 327 330 333 332 342 339 342 345 340 338
301 302 303 304 305 304 307 310 314 314 311 308 309 313 324 326 322 323 323 323 322 321 322 321 321 321 321 320 322 322 322 323 324 326 326 327 328 332 332 332 343 349 347 344 341
301 303 304 305 305 305 310 311 315 314 310 308 307 318 330 319 322 321 323 323 321 321 320 319 320 321 321 322 323 321 322 321 324 325 326 326 327 330 332 332 344 345 346 346 343
301 303 304 306 306 305 310 312 314 313 312 311 319 326 329 317 318 322 323 323 322 321 319 318 320 319 321 322 324 323 321 322 323 325 326 326 327 329 330 333 335 347 349 347 346
302 304 306 307 306 309 309 316 318 316 322 321 324 327 325 323 321 321 322 323 323 321 318 318 320 320 321 323 321 323 322 322 323 324 325 326 327 329 329 330 332 338 345 346 349
304 305 306 307 307 309 310 321 327 329 328 327 325 324 323 321 320 321 322 323 323 319 320 320 320 322 322 323 323 323 324 325 324 324 327 327 329 327 328 333 335 336 344 347 349
305 305 307 309 308 313 314 323 319 320 324 323 322 322 322 322 322 322 323 323 325 323 323 324 322 323 324 324 323 323 323 324 324 325 325 326 330 328 329 334 337 337 338 345 350
306 306 307 310 309 315 320 317 318 320 325 324 323 322 323 321 322 322 324 324 325 325 326 325 325 324 323 322 321 321 321 322 322 324 325 325 329 332 331 332 337 336 338 343 352
306 307 308 312 314 319 321 317 318 320 328 324 322 323 321 321 321 323 323 325 324 325 325 325 325 323 323 322 322 323 323 322 322 323 324 327 327 329 331 333 339 338 338 337 346
307 307 309 315 315 323 320 319 318 322 335 323 323 323 322 324 323 322 323 323 324 325 324 325 324 324 323 323 323 323 326 325 325 324 323 323 324 327 331 332 333 334 336 336 336
308 307 312 318 321 322 321 319 320 324 325 322 323 324 324 324 323 325 324 323 325 326 326 324 326 325 325 325 325 325 325 326 326 326 326 326 325 325 327 332 333 333 332 334 335
310 309 314 319 325 321 321 321 327 324 322 322 321 322 326 325 325 324 324 323 326 328 326 327 326 325 325 324 325 325 326 327 328 329 328 330 327 328 328 328 330 332 334 334 337
311 312 317 318 320 321 323 324 324 323 320 322 321 322 322 324 324 324 325 324 326 327 328 329 331 328 326 325 326 327 328 329 331 331 330 330 330 330 331 328 328 329 329 341 338
312 318 321 324 320 321 325 325 322 323 322 320 320 319 322 322 324 324 325 333 332 329 330 332 336 328 327 326 326 326 328 329 330 329 328 327 332 332 332 329 330 328 329 335 336
311 320 323 320 320 323 326 325 323 323 322 320 321 322 322 323 322 321 324 330 330 327 328 329 331 329 328 327 325 326 326 328 330 333 333 328 329 333 334 333 332 331 337 340 341
316 324 323 321 320 324 327 324 321 322 321 321 323 323 323 323 322 321 323 330 328 327 326 326 328 329 327 327 327 329 335 334 332 332 336 334 333 334 332 333 332 332 336 338 334
319 324 320 318 323 326 326 325 316 322 320 321 323 325 324 324 323 321 320 329 324 324 324 327 333 334 327 325 323 324 325 325 324 331 339 338 336 332 332 330 331 329 332 332 330
321 321 320 319 322 325 325 323 321 320 321 322 323 323 325 325 325 324 322 327 322 322 327 329 330 329 324 324 325 324 326 330 327 334 331 329 328 326 331 332 330 329 330 332 331
320 321 322 321 321 324 326 323 320 319 320 322 325 325 325 325 324 325 323 328 323 320 323 322 324 325 323 324 323 326 330 331 330 328 327 326 326 325 327 328 329 334 335 334 337
321 321 320 322 322 321 322 323 323 322 319 320 321 322 324 325 324 324 325 324 323 325 320 323 325 325 324 324 324 324 324 324 323 323 326 324 324 324 326 326 330 334 333 335 336
317 318 317 319 319 320 315 319 320 321 321 321 321 323 323 323 326 326 325 325 325 322 321 325 328 326 324 321 320 320 320 320 319 319 319 318 319 320 323 323 334 333 331 335 333
313 314 317 318 319 320 321 320 320 319 319 318 317 320 322 321 318 320 321 321 322 323 324 324 326 326 326 322 321 323 321 321 321 321 320 321 320 321 326 334 334 337 336 335 334
Wind_Speed
12 13 14 15 16 16 16 16 16 16 17 17 17 17 18 20 19 9 11 6 6 13 7 7 11 16 17 15 18 18 13 14 22 20 15 20 9 8 4 11 6 10 23 24 26
13 15 15 16 16 17 18 17 17 17 17 17 17 16 18 19 16 19 15 11 9 9 9 13 12 15 13 17 15 16 13 20 22 11 8 6 4 13 7 9 12 19 23 28 27
15 16 17 17 18 19 19 18 17 17 17 18 16 16 16 11 10 4 12 6 8 11 14 15 16 14 16 16 19 19 17 21 23 17 12 16 4 11 14 15 12 14 20 22 24
17 18 18 19 19 21 20 18 19 19 18 16 15 14 11 3 2 7 6 5 6 9 10 14 14 15 15 17 19 20 20 21 23 22 7 11 2 6 4 7 26 10 17 21 20
18 19 20 20 21 22 20 18 14 13 13 13 12 10 2 7 7 7 4 4 8 8 13 12 12 13 15 17 17 18 18 19 20 19 4 12 13 5 8 24 30 20 17 20 18
19 21 22 21 23 22 19 13 13 10 8 8 8 5 3 10 5 7 8 9 9 12 14 14 12 12 15 16 16 15 17 20 20 15 13 11 15 3 10 25 36 30 23 20 19
22 22 22 22 24 21 13 13 8 7 6 5 6 4 9 12 1 6 10 10 8 11 9 9 14 11 9 13 16 17 17 11 17 16 16 9 14 14 13 13 14 23 20 21 19
24 23 23 23 23 18 11 11 6 6 4 2 5 3 8 4 1 8 11 6 5 5 8 11 8 11 16 15 12 13 15 14 18 18 16 14 15 16 15 15 18 18 19 18 21
26 24 23 23 21 14 11 10 5 3 1 2 3 7 8 5 10 10 9 6 5 5 6 8 9 12 15 13 11 12 12 19 18 19 17 12 17 16 17 19 15 27 31 17 12
27 26 23 22 18 11 12 8 6 5 5 6 14 9 10 5 9 8 11 9 5 5 5 7 7 10 13 12 13 10 18 13 15 15 14 13 15 14 20 19 15 8 14 13 16
28 26 24 18 10 11 9 5 5 6 9 10 7 10 6 6 4 8 11 11 11 6 11 11 10 12 14 17 19 10 15 14 8 8 3 8 11 16 15 8 7 10 10 10 13
28 26 23 15 6 9 9 6 7 8 8 8 2 8 4 4 7 10 11 8 9 11 12 10 12 15 12 6 10 10 14 14 15 7 2 10 14 14 14 13 12 12 12 13 19
28 27 20 11 6 9 7 6 8 9 6 10 4 1 3 9 8 13 13 13 11 11 13 9 11 4 3 7 10 12 13 14 14 14 10 10 16 16 13 15 15 13 12 15 20
28 25 16 9 7 4 6 7 8 5 5 12 10 6 8 9 6 7 12 14 9 12 14 9 13 5 5 9 11 11 14 15 12 13 10 13 11 15 13 14 17 17 16 15 17
28 23 10 7 13 7 9 9 7 3 5 6 6 6 12 7 9 11 7 12 12 16 5 14 7 5 11 13 10 11 8 8 10 11 14 17 11 15 9 18 20 18 19 20 18
28 19 9 6 10 6 8 7 4 5 3 8 5 8 13 14 8 6 6 10 12 13 11 14 7 5 9 11 3 12 9 9 12 12 12 17 15 16 15 11 9 9 11 19 20
26 13 8 9 8 10 11 6 6 8 2 6 6 6 6 5 9 7 9 8 11 7 9 10 13 12 8 11 11 11 9 9 11 11 14 10 16 13 14 9 12 12 19 14 15
24 11 7 11 11 11 11 8 8 5 2 5 3 3 7 6 7 6 6 11 10 7 11 9 15 9 6 5 12 10 13 9 15 13 8 15 8 2 7 4 6 9 7 12 12
23 10 8 10 7 8 7 8 8 10 5 3 7 9 9 5 6 4 9 11 4 8 6 9 15 11 10 6 10 14 12 13 11 17 13 13 3 11 10 5 13 9 10 2 9
18 13 16 1 4 8 7 14 10 4 6 4 11 5 9 11 6 8 9 5 2 5 10 13 11 8 7 5 11 14 14 10 7 8 13 14 7 11 14 13 19 24 16 19 14
6 5 6 3 5 6 9 8 4 10 5 3 8 5 9 5 4 12 1 8 4 5 9 13 8 14 15 8 10 5 4 11 4 5 7 11 7 16 20 14 12 22 20 14 15
7 5 6 2 6 8 12 11 1 1 2 5 5 9 8 4 6 8 6 10 5 4 8 8 5 9 17 22 18 16 7 11 7 5 3 5 10 6 11 11 16 17 21 10 9
5 9 5 4 6 8 5 5 2 3 8 4 4 5 2 5 3 10 7 11 7 5 6 10 3 8 11 13 10 10 12 16 5 5 11 11 9 10 4 2 6 4 12 9 12
5 4 5 5 6 7 11 5 7 1 10 3 10 3 6 8 9 5 6 8 7 5 7 4 5 9 12 19 17 15 4 14 14 7 12 14 18 17 15 12 9 9 15 17 15
4 2 4 5 6 8 6 9 10 6 7 3 7 10 9 9 12 12 12 5 9 12 4 3 8 13 16 20 21 21 20 16 18 16 15 18 20 17 15 14 10 14 16 15 15
4 4 7 10 6 8 4 8 11 12 1 6 9 11 6 6 9 12 13 8 4 8 6 7 8 9 14 17 19 22 22 22 20 20 21 20 22 16 14 10 14 13 15 12 14
12 10 4 8 7 7 9 9 9 5 5 4 9 9 10 4 8 9 7 8 9 7 9 8 8 9 16 16 17 18 17 21 22 20 20 18 18 13 9 14 14 14 15 15 16
Wind_Direction
349 343 341 332 325 319 314 308 304 300 298 300 300 305 305 303 308 293 253 243 253 247 263 241 213 228 244 260 245 246 254 268 267 276 146 217 198 141 137 115 165 80 139 145 150
352 345 342 335 329 321 314 309 302 296 295 294 296 300 302 313 305 263 246 251 245 248 217 214 210 217 229 235 246 237 251 252 269 314 158 105 256 147 155 162 126 106 118 139 151
352 348 341 336 328 321 316 307 300 296 293 290 293 294 302 329 282 84 183 221 232 222 230 269 217 212 228 231 232 241 243 264 269 310 289 120 239 147 221 185 47 125 138 151 158
352 345 340 333 327 322 316 308 301 296 292 290 289 288 302 316 330 126 165 234 215 193 228 260 248 233 234 236 235 235 246 254 278 294 310 290 331 201 269 141 116 267 156 156 164
347 342 337 332 327 322 318 312 310 304 296 289 280 281 325 235 245 143 168 190 176 182 221 234 241 247 234 244 238 237 249 254 263 281 294 304 287 245 238 128 124 220 201 160 168
346 341 337 333 327 324 322 319 314 302 303 293 266 238 248 250 82 161 151 159 178 205 217 226 233 246 269 259 262 245 239 254 263 269 266 248 269 234 259 139 165 168 180 159 172
345 340 338 333 328 327 325 323 317 317 313 293 228 172 257 263 281 177 176 193 218 231 268 246 255 280 258 278 257 270 273 261 243 263 266 232 245 249 238 228 169 154 157 166 178
345 341 337 334 330 328 323 321 311 313 305 240 173 220 276 155 229 188 195 211 211 245 283 295 262 271 266 278 274 251 248 259 253 232 244 235 252 233 242 236 186 188 156 171 175
346 342 339 336 330 323 317 318 306 280 257 245 194 216 253 164 215 205 207 196 205 230 245 273 250 245 242 246 260 230 247 233 249 235 215 199 248 262 263 217 218 128 227 180 173
345 343 341 336 329 315 318 317 273 271 272 253 266 254 237 227 160 198 209 255 212 222 208 218 221 230 234 233 240 231 213 226 260 244 179 224 235 242 265 258 199 203 182 167 158
345 343 339 336 323 306 325 305 213 203 234 266 145 255 146 113 158 215 196 215 208 214 236 194 221 225 232 217 254 334 301 312 256 217 297 209 252 251 247 167 195 214 190 171 163
344 341 338 333 291 297 305 267 30 331 296 202 246 236 293 296 207 192 184 216 218 235 210 218 230 255 259 357 336 310 280 281 297 311 52 288 266 244 238 204 207 234 235 217 152
343 340 335 327 272 279 257 350 322 325 263 189 194 293 176 201 221 172 192 219 237 244 260 262 284 70 354 296 259 268 268 277 265 286 182 251 267 263 232 217 182 207 228 206 170
342 338 333 324 300 342 248 335 324 352 272 153 199 148 150 204 222 149 189 232 233 256 265 254 267 43 267 251 267 259 253 234 275 288 268 221 255 248 226 227 188 195 204 229 197
342 338 323 320 307 294 331 322 329 263 261 151 123 113 155 217 127 183 223 232 264 279 250 270 218 261 247 247 256 253 355 334 288 270 265 268 266 266 236 216 219 211 200 209 220
342 332 305 263 267 309 323 321 269 234 240 148 165 203 187 209 183 124 208 235 288 287 281 272 309 281 298 319 330 299 310 258 265 260 258 248 254 268 261 237 199 227 230 215 205
339 318 274 282 296 327 318 268 248 252 123 154 204 220 236 143 183 196 176 209 250 245 242 274 262 230 217 269 238 219 249 264 253 229 239 324 242 235 253 253 205 194 227 239 103
337 298 265 259 283 310 299 257 262 330 90 31 325 211 250 174 226 226 223 227 208 289 306 287 250 296 294 240 295 328 244 259 280 301 337 284 265 298 281 265 264 263 282 119 103
336 287 249 238 285 291 276 240 261 340 40 294 192 267 207 217 284 255 230 75 44 339 336 327 347 206 220 274 300 293 263 341 309 276 274 269 173 274 239 332 347 285 292 106 101
331 288 249 189 275 275 259 259 299 30 346 276 275 228 275 182 183 229 256 82 124 10 338 305 313 280 211 240 266 255 293 293 284 338 302 294 320 50 5 40 10 341 9 64 73
301 252 111 272 246 253 249 256 199 90 334 273 282 297 269 327 256 298 24 102 40 3 333 308 305 297 305 266 330 323 9 334 308 298 306 301 338 35 24 13 30 27 42 58 68
295 270 119 266 247 231 242 341 66 98 210 272 290 308 303 320 291 283 294 65 55 359 304 11 338 300 295 307 311 300 265 270 291 276 113 144 280 248 90 306 42 18 3 74 92
290 294 153 240 255 256 174 209 321 248 269 257 248 260 282 275 251 258 293 100 45 23 31 352 268 281 278 256 285 283 323 329 280 323 275 270 267 308 139 59 93 44 15 114 134
278 284 182 210 277 290 320 252 194 161 307 314 300 340 269 249 255 264 254 145 112 73 58 347 279 278 281 302 311 300 102 297 270 280 289 284 304 312 326 352 10 16 25 4 357
251 12 27 305 54 338 342 309 302 181 206 240 265 249 259 262 266 246 225 217 172 152 187 235 267 275 276 284 292 291 289 287 284 280 274 284 286 297 314 328 21 24 5 358 359
325 353 354 293 281 286 262 269 263 264 193 235 231 287 262 267 287 305 349 330 306 142 190 223 260 281 280 281 282 283 285 284 279 276 277 280 279 290 291 302 38 18 347 9 355
9 316 281 298 270 255 256 264 252 302 313 322 326 311 269 13 351 330 333 322 316 317 289 268 252 274 271 280 282 270 264 266 268 269 269 267 272 291 358 46 28 26 26 1 358